Bakersfield, CA

10:27 AM PDT on March 28, 2017 (GMT -0700)
Meadows

Weather History for KBFL - December, 2013

Change the Weather History Date:

Thursday, December 5, 2013

  Actual Average Record
Temperature  
Mean Temperature 39 °F 49 °F  
Max Temperature 49 °F 59 °F 80 °F (1918)
Min Temperature 29 °F 40 °F 23 °F (1903)
Degree Days  
Heating Degree Days 26    
Month to date heating degree days 78  
Since 1 July heating degree days 322  
Cooling Degree Days 0    
Month to date cooling degree days 0  
Year to date cooling degree days 2557  
Moisture  
Dew Point 21 °F    
Average Humidity 52    
Maximum Humidity 72    
Minimum Humidity 31    
Precipitation  
Precipitation 0.00 in 0.03 in 0.65 in (1894)
Month to date precipitation T 0.13  
Year to date precipitation 3.33 5.58  
Since 1 July precipitation 0.97  
Snow  
Snow 0.00 in - - ()
Month to date snowfall 0.0  
Since 1 July snowfall 0.0  
Snow Depth 0.00 in    
Sea Level Pressure  
Sea Level Pressure 30.13 in    
Wind  
Wind Speed 3 mph (ESE)    
Max Wind Speed 8 mph    
Max Gust Speed 14 mph    
Visibility 10 miles    
Events      
T = Trace of Precipitation, MM = Missing Value Source: NWS Daily Summary

Daily Weather History Graph

Daily Weather History Graph

Search for Another Location

Airport or City:

Trip Planner

Search our weather history database for the weather conditions in past years. The results will help you decide how hot, cold, wet, or windy it might be!

Date:

Astronomy

Dec. 05, 2013 Rise Set
Actual Time 6:50 AM PST 4:43 PM PST
Civil Twilight 6:22 AM PST 5:11 PM PST
Nautical Twilight 5:51 AM PST 5:42 PM PST
Astronomical Twilight 5:20 AM PST 6:13 PM PST
Moon 9:17 AM PST (12/5) 8:06 PM PST (12/5)
Length of Visible Light 10h 48m
Length of Day
9h 52m
Waxing Crescent, 11% of the Moon is Illuminated
Dec 5
Waxing Crescent
Dec 9
First Quarter
Dec 17
Full
Dec 25
Last Quarter
Jan 1
New

Hourly Weather History & Observations

Time (PST) Temp. Windchill Dew Point Humidity Pressure Visibility Wind Dir Wind Speed Gust Speed Precip Events Conditions
12:54 AM 30.9 °F - 21.9 °F 69% 30.05 in 10.0 mi Calm Calm - N/A   Clear
1:54 AM 33.1 °F - 23.0 °F 66% 30.06 in 10.0 mi Calm Calm - N/A   Clear
2:54 AM 30.9 °F - 23.0 °F 72% 30.07 in 10.0 mi Calm Calm - N/A   Clear
3:54 AM 33.1 °F 30.0 °F 24.1 °F 70% 30.06 in 10.0 mi East 3.5 mph - N/A   Clear
4:54 AM 30.0 °F 25.2 °F 23.0 °F 75% 30.08 in 10.0 mi SSE 4.6 mph - N/A   Clear
5:54 AM 30.0 °F - 23.0 °F 75% 30.09 in 10.0 mi Calm Calm - N/A   Clear
6:54 AM 32.0 °F 28.7 °F 23.0 °F 69% 30.12 in 10.0 mi ESE 3.5 mph - N/A   Clear
7:54 AM 32.0 °F 26.4 °F 21.0 °F 64% 30.14 in 10.0 mi ESE 5.8 mph - N/A   Clear
8:54 AM 35.1 °F 29.3 °F 21.0 °F 57% 30.16 in 10.0 mi SSE 6.9 mph - N/A   Clear
9:54 AM 39.0 °F 36.8 °F 21.0 °F 49% 30.16 in 10.0 mi SSW 3.5 mph - N/A   Clear
10:54 AM 41.0 °F 39.0 °F 21.9 °F 47% 30.16 in 10.0 mi West 3.5 mph - N/A   Clear
11:54 AM 43.0 °F 40.3 °F 23.0 °F 45% 30.13 in 10.0 mi Variable 4.6 mph - N/A   Clear
12:54 PM 45.0 °F 42.6 °F 21.0 °F 39% 30.12 in 10.0 mi Variable 4.6 mph - N/A   Clear
1:54 PM 46.9 °F - 19.0 °F 33% 30.11 in 10.0 mi NNW 6.9 mph - N/A   Clear
2:54 PM 48.0 °F - 19.0 °F 32% 30.11 in 10.0 mi North 3.5 mph - N/A   Clear
3:54 PM 46.9 °F - 18.0 °F 32% 30.11 in 10.0 mi North 3.5 mph - N/A   Clear
4:54 PM 45.0 °F 43.5 °F 17.1 °F 33% 30.12 in 10.0 mi NW 3.5 mph - N/A   Clear
5:54 PM 39.9 °F - 19.9 °F 45% 30.14 in 10.0 mi Calm Calm - N/A   Clear
6:54 PM 37.0 °F - 21.0 °F 52% 30.15 in 10.0 mi Calm Calm - N/A   Clear
7:54 PM 36.0 °F 33.3 °F 21.0 °F 55% 30.16 in 10.0 mi East 3.5 mph - N/A   Clear
8:54 PM 37.0 °F 32.4 °F 21.0 °F 52% 30.18 in 10.0 mi SE 5.8 mph - N/A   Clear
9:54 PM 37.0 °F 32.4 °F 21.9 °F 54% 30.18 in 10.0 mi ESE 5.8 mph - N/A   Clear
10:54 PM 35.1 °F - 21.9 °F 59% 30.18 in 10.0 mi Calm Calm - N/A   Clear
11:54 PM 35.1 °F 29.3 °F 21.9 °F 59% 30.18 in 10.0 mi East 6.9 mph - N/A   Clear